Regional Weather Roundup
Issued by NWS Newport/Morehead, NC

Current Version | Previous Version | Graphics & Text | Print | Product List | Glossary Off
Versions: 1 2 3 4 5 6 7 8 9 10 11 12 13 14 15 16 17 18 19 20 21 22 23 24 25 26 27 28 29 30 31 32 33 34 35 36 37 38 39 40 41 42 43 44 45 46 47 48 49 50

000
ASUS42 KMHX 300713
RWRMHX
WEATHER ROUNDUP FOR EASTERN NORTH CAROLINA
NATIONAL WEATHER SERVICE NEWPORT/MOREHEAD CITY NC
300 AM EDT THU MAR 30 2017

NOTE: "FAIR" INDICATES FEW OR NO CLOUDS BELOW 12,000 FEET
WITH NO SIGNIFICANT WEATHER AND/OR OBSTRUCTIONS TO VISIBILITY

NCZ015>017-031-032-045>047-102-103-300800-
NORTH COAST

CITY           SKY/WX    TMP DP  RH WIND       PRES   REMARKS
EDENTON        CLEAR     45  44  93 CALM      30.16S
ELIZABETH CITY CLEAR     47  45  93 NE5       30.15F
KITTY HAWK     NOT AVBL
MANTEO         CLEAR     46  44  91 E6        30.14F

$$

NCZ045>047-081-094-103-104-300800-
CENTRAL COAST

CITY           SKY/WX    TMP DP  RH WIND       PRES   REMARKS
FRISCO         CLEAR     53  45  74 E7        30.12F

$$

NCZ095-097-098-100-101-300800-
SOUTHERN COAST

CITY           SKY/WX    TMP DP  RH WIND       PRES   REMARKS
BEAUFORT       CLEAR     51  50  96 NE5       30.12F
CEDAR ISLAND   NOT AVBL
JACKSONVILLE   CLEAR     54  49  83 E12       30.12F
PINEY ISLAND   SUNNY    N/A N/A N/A NE10      30.12F
WILMINGTON     CLEAR     57  55  93 E6        30.11F


$$

NCZ011>013-027>030-043-044-078>080-089-090>093-098-300800-
COASTAL PLAIN

CITY           SKY/WX    TMP DP  RH WIND       PRES   REMARKS
AHOSKIE          N/A     45  44  97 CALM      30.17S
CLINTON        CLEAR     54  52  95 CALM      30.14S
ELIZABETHTOWN  PTCLDY    55  55  97 E3        30.12S
GOLDSBORO      CLEAR     51  51 100 CALM      30.13S
GREENVILLE     PTCLDY    46  46 100 E3        30.16S
HAVELOCK       CLEAR     52  48  86 NE6       30.14F
KENANSVILLE    CLEAR     50  48  93 CALM      30.14F FOG
KINSTON        CLEAR     51  50  95 CALM      30.15S
NEW BERN       CLEAR     50  48  93 NE5       30.15S
RICHLANDS      CLEAR     47  46  97 N3        30.14
ROCKY MOUNT    MOCLDY    51  50  96 E3        30.14F
WASHINGTON     PTCLDY    46  44  94 NE5       30.15F
WHITEVILLE     CLEAR     57  55  92 E6        30.09F

$$

AMZ130-135-150-152-154-156-158-170-250-252-270-ANZ085-086-088-633-658-670-300800-
MARINE OBSERVATIONS

STATION/POSITION TIME  TEMP    WIND        PRES    WAVE   SWELL
                       AIR SEA DIR/SP/G            HT/PER HT/PER
                 (UTC) (F)     (DEG/KT/KT) (MB)    (FT/S) (FT/S)
CHESAPEAKE LIGHT NOT AVBL
64 E VA BEACH    0650   51 51   50/  6/  6 1020.7    5/ 8   5/ 8
DUCK             0648           40/  5/  5   N/A
2 E DUCK         0700      50                N/A     4/ 8   2/17
OREGON INLET     0636           50/  5/  6   N/A
13E OREGON INLT  0648      50                N/A     5/ 9   5/ 9
HATTERAS CG      0648           60/  7/  9   N/A
DIAMOND BUOY     0650   62 73   50/ 16/ 19 1019.6    6/ 9   5/ 9
CAPE LOOKOUT     0700   62      60/ 15/ 16 1019.4
BEAUFORT LAB     0648           30/  4/  5   N/A
30 SE NEW RVR IN 0608   62      80/ 14/ 17 1020.0
30 SE NEW RVR IN 0643      63                N/A     6/10   2/11
27 SE WRIGHTSVLE 0608   65 73  100/ 16/ 21 1018.6
5 SE WRIGHTSVLE  0608   60 58   90/ 12/ 17 1019.6
225 S CAPE HAT   0650   69 72   60/ 14/ 17 1017.8    6/ 9   5/ 9
41 SE CHARLESTON 0650   71 69   80/ 16/ 19 1016.5    6/10   3/10

$$



USA.gov is the U.S. government's official web portal to all federal, state and local government web resources and services.